Weather History for KBTM - August, 2013

Change the Weather History Date:

Friday, August 16, 2013

  Actual Average Record
Temperature  
Mean Temperature 69 °F 62 °F  
Max Temperature 92 °F 80 °F 93 °F (1966)
Min Temperature 45 °F 44 °F 33 °F (1935)
Degree Days  
Heating Degree Days 0 4  
Month to date heating degree days 35 44  
Since 1 June heating degree days 296 431  
Since 1 July heating degree days 53 144  
Cooling Degree Days 4 1  
Month to date cooling degree days 6 18  
Year to date cooling degree days 87 69  
Since 1 June cooling degree days 87 69  
Growing Degree Days 18 (Base 50)    
Moisture  
Dew Point 29 °F    
Average Humidity 33    
Maximum Humidity 58    
Minimum Humidity 8    
Precipitation  
Precipitation 0.00 in 0.05 in 0.85 in (1956)
Month to date precipitation 0.74 0.70  
Year to date precipitation 6.41 9.22  
Sea Level Pressure  
Sea Level Pressure 29.94 in    
Wind  
Wind Speed 6 mph (NNW)    
Max Wind Speed 24 mph    
Max Gust Speed 37 mph    
Visibility 10 miles    
Events      
T = Trace of Precipitation, MM = Missing Value Source: NWS Daily Summary

Daily Weather History Graph

Daily Weather History Graph

Search for Another Location

Airport or City:

Trip Planner

Search our weather history database for the weather conditions in past years. The results will help you decide how hot, cold, wet, or windy it might be!

Date:

Astronomy

Aug. 16, 2013 Rise Set
Actual Time 6:31 AM MDT 8:36 PM MDT
Civil Twilight 5:58 AM MDT 9:08 PM MDT
Nautical Twilight 5:18 AM MDT 9:48 PM MDT
Astronomical Twilight 4:34 AM MDT 10:32 PM MDT
Moon 5:05 PM MDT (8/16) 1:31 AM MDT (8/16)
Length of Visible Light 15h 09m
Length of Day
14h 04m
Waxing Gibbous, 75% of the Moon is Illuminated
Aug 16
Waxing Gibbous
Aug 20
Full
Aug 28
Last Quarter
Sep 5
New
Sep 12
First Quarter

Hourly Weather History & Observations

Time (MDT) Temp. Dew Point Humidity Pressure Visibility Wind Dir Wind Speed Gust Speed Precip Events Conditions
12:53 AM 59.0 °F 33.1 °F 38% 29.94 in 10.0 mi SE 5.8 mph - N/A   Clear
1:53 AM 57.0 °F 32.0 °F 39% 29.94 in 10.0 mi Calm Calm - N/A   Clear
2:53 AM 55.0 °F 30.9 °F 40% 29.94 in 10.0 mi SSE 6.9 mph - N/A   Clear
3:53 AM 53.1 °F 30.9 °F 43% 29.95 in 10.0 mi Calm Calm - N/A   Clear
4:53 AM 48.0 °F 30.9 °F 52% 29.96 in 10.0 mi ESE 4.6 mph - N/A   Clear
5:53 AM 48.0 °F 28.9 °F 48% 29.97 in 10.0 mi South 3.5 mph - N/A   Clear
6:53 AM 46.0 °F 32.0 °F 58% 29.98 in 10.0 mi Calm Calm - N/A   Clear
7:53 AM 48.9 °F 32.0 °F 52% 29.98 in 10.0 mi ESE 6.9 mph - N/A   Clear
8:53 AM 57.0 °F 32.0 °F 39% 29.99 in 10.0 mi Calm Calm - N/A   Clear
9:53 AM 64.9 °F 33.1 °F 31% 29.98 in 10.0 mi Calm Calm - N/A   Clear
10:53 AM 73.0 °F 35.1 °F 25% 29.94 in 10.0 mi Calm Calm - N/A   Clear
11:53 AM 84.0 °F 34.0 °F 17% 29.92 in 10.0 mi North 4.6 mph - N/A   Clear
12:53 PM 89.1 °F 27.0 °F 11% 29.90 in 10.0 mi Variable 3.5 mph - N/A   Clear
1:53 PM 90.0 °F 21.9 °F 8% 29.89 in 10.0 mi SW 11.5 mph 23.0 mph N/A   Clear
2:53 PM 90.0 °F 21.9 °F 8% 29.88 in 10.0 mi West 15.0 mph 25.3 mph N/A   Clear
3:53 PM 90.0 °F 19.9 °F 8% 29.88 in 10.0 mi WNW 18.4 mph 28.8 mph N/A   Clear
4:53 PM 89.1 °F 24.1 °F 9% 29.90 in 10.0 mi NW 21.9 mph 26.5 mph N/A   Clear
5:06 PM 89.6 °F 21.2 °F 8% 30.08 in 10.0 mi NW 15.0 mph 23.0 mph N/A   Clear
5:53 PM 89.1 °F 21.9 °F 9% 29.91 in 10.0 mi NNW 10.4 mph - N/A   Clear
6:53 PM 87.1 °F 24.1 °F 10% 29.91 in 10.0 mi North 9.2 mph - N/A   Clear
7:53 PM 82.9 °F 26.1 °F 13% 29.92 in 10.0 mi North 6.9 mph - N/A   Clear
8:53 PM 78.1 °F 28.0 °F 16% 29.93 in 10.0 mi North 8.1 mph - N/A   Clear
9:53 PM 73.9 °F 30.9 °F 21% 29.94 in 10.0 mi WNW 5.8 mph - N/A   Clear
10:53 PM 64.9 °F 30.0 °F 27% 29.97 in 10.0 mi SSE 6.9 mph - N/A   Clear
11:53 PM 60.1 °F 30.9 °F 33% 29.97 in 10.0 mi East 3.5 mph - N/A   Clear